Location: Unspecified
(0.0000°N, 0.0000°E)
Time: 15:22:23
(UTC+00:00)

IRIDIUM 160 - Visible Passes

Search period start: 15 June 2025 00:00
Search period end: 25 June 2025 00:00
Orbit: 776 x 779 km, 86.4° (Epoch: 14 June)

Date Brightness Start Highest point End Pass type
(mag) Time Alt. Az. Time Alt. Az. Time Alt. Az.
15 Jun ? 20:20:28 25° N 20:20:28 25° N 20:22:34 10° N visible
16 Jun ? 19:46:18 23° NE 19:46:18 23° NE 19:48:37 10° NNE visible
17 Jun ? 19:12:05 14° ENE 19:12:05 14° ENE 19:13:32 10° NE visible
17 Jun ? 20:52:30 24° WNW 20:52:30 24° WNW 20:55:17 10° NNW visible
18 Jun ? 20:18:14 55° NW 20:18:14 55° NW 20:22:34 10° N visible
19 Jun ? 19:43:52 57° E 19:43:58 57° E 19:49:04 10° NNE visible
20 Jun ? 19:09:25 24° ESE 19:10:30 26° E 19:14:46 10° NE visible
20 Jun ? 20:49:49 16° WSW 20:50:55 17° W 20:54:18 10° NW visible
21 Jun ? 18:35:33 10° ESE 18:37:03 11° E 18:38:33 10° ENE visible
21 Jun ? 20:15:16 26° SW 20:17:28 38° W 20:22:17 10° NNW visible
22 Jun ? 19:40:35 22° S 19:44:01 87° W 19:49:14 10° N visible
23 Jun ? 19:05:44 10° SSE 19:10:34 41° E 19:15:26 10° NNE visible
23 Jun ? 20:50:22 10° W 20:50:58 10° W 20:51:34 10° W visible
24 Jun ? 18:33:31 10° SE 18:37:07 19° E 18:40:41 10° NE visible
24 Jun ? 20:13:24 10° SW 20:17:32 24° W 20:21:39 10° NW visible
